• In Switzerland
  • List of Countries
  • For 7 days
  • Water Temperature
  • Satellite Maps
  • Weather Map
  • Weather Widgets
  • user-avatar
    Login

    Hourly Weather Juigalpa

    Today, 23 July, Monday

    Time Temperature Precipitation Wind Pressure Humidity
    00:00 +26°C° 0.1 mm 4 mps 752 mmHg 90%
    01:00 +26°C° 0.1 mm 4 mps 752 mmHg 91%
    02:00 +25°C° 0.1 mm 4 mps 751 mmHg 91%
    03:00 +25°C° 0.1 mm 4 mps 751 mmHg 91%
    04:00 +25°C° 0 mm 4 mps 751 mmHg 91%
    05:00 +25°C° 0 mm 4 mps 751 mmHg 92%
    06:00 +25°C° 0 mm 4 mps 752 mmHg 92%
    07:00 +27°C° 0.1 mm 5 mps 752 mmHg 87%
    08:00 +28°C° 0.1 mm 6 mps 752 mmHg 82%
    09:00 +29°C° 0.1 mm 6 mps 752 mmHg 78%
    10:00 +30°C° 0.1 mm 6 mps 752 mmHg 75%
    11:00 +32°C° 0.1 mm 6 mps 752 mmHg 72%
    12:00 +32°C° 0.1 mm 6 mps 752 mmHg 70%
    13:00 +32°C° 0.1 mm 6 mps 751 mmHg 71%
    14:00 +32°C° 0.1 mm 5 mps 751 mmHg 71%
    15:00 +32°C° 0.1 mm 5 mps 751 mmHg 72%
    16:00 +30°C° 0 mm 5 mps 751 mmHg 76%
    17:00 +29°C° 0 mm 4 mps 751 mmHg 79%
    18:00 +28°C° 0 mm 3 mps 751 mmHg 83%
    19:00 +28°C° 0 mm 3 mps 752 mmHg 84%
    20:00 +27°C° 0 mm 3 mps 752 mmHg 85%
    21:00 +27°C° 0 mm 3 mps 753 mmHg 86%
    22:00 +27°C° 0 mm 3 mps 753 mmHg 87%
    23:00 +26°C° 0 mm 3 mps 753 mmHg 88%

    Tomorrow, 24 July, Tuesday

    Time Temperature Precipitation Wind Pressure Humidity
    00:00 +26°C° 0 mm 3 mps 753 mmHg 88%
    01:00 +26°C° 0 mm 3 mps 752 mmHg 89%
    02:00 +26°C° 0 mm 3 mps 752 mmHg 90%
    03:00 +26°C° 0 mm 3 mps 752 mmHg 91%
    04:00 +26°C° 0 mm 3 mps 752 mmHg 92%
    05:00 +25°C° 0 mm 3 mps 752 mmHg 92%
    06:00 +25°C° 0 mm 3 mps 752 mmHg 92%
    07:00 +27°C° 0 mm 4 mps 752 mmHg 87%
    08:00 +28°C° 0 mm 4 mps 753 mmHg 81%
    09:00 +30°C° 0 mm 5 mps 753 mmHg 75%
    10:00 +30°C° 0.1 mm 5 mps 753 mmHg 74%
    11:00 +30°C° 0.1 mm 5 mps 752 mmHg 74%
    12:00 +32°C° 0.1 mm 5 mps 752 mmHg 74%
    13:00 +32°C° 0.1 mm 5 mps 752 mmHg 74%
    14:00 +32°C° 0.1 mm 5 mps 751 mmHg 75%
    15:00 +32°C° 0.1 mm 4 mps 751 mmHg 75%
    16:00 +30°C° 0 mm 4 mps 751 mmHg 78%
    17:00 +29°C° 0 mm 4 mps 751 mmHg 81%
    18:00 +28°C° 0 mm 3 mps 751 mmHg 83%
    19:00 +28°C° 0 mm 3 mps 752 mmHg 85%
    20:00 +27°C° 0 mm 3 mps 752 mmHg 88%
    21:00 +27°C° 0 mm 3 mps 753 mmHg 90%
    22:00 +26°C° 0 mm 3 mps 753 mmHg 91%
    23:00 +26°C° 0 mm 3 mps 753 mmHg 92%

    Day after tomorrow, 25 July, Wednesday

    Time Temperature Precipitation Wind Pressure Humidity
    00:00 +26°C° 0 mm 3 mps 753 mmHg 93%
    01:00 +26°C° 0.7 mm 3 mps 753 mmHg 94%
    02:00 +26°C° 0.7 mm 3 mps 752 mmHg 94%
    03:00 +26°C° 0.7 mm 2 mps 752 mmHg 95%
    04:00 +26°C° 0.6 mm 2 mps 752 mmHg 94%
    05:00 +26°C° 0.6 mm 2 mps 752 mmHg 94%
    06:00 +26°C° 0.6 mm 2 mps 752 mmHg 94%
    07:00 +27°C° 0 mm 3 mps 752 mmHg 89%
    08:00 +28°C° 0 mm 4 mps 753 mmHg 84%
    09:00 +29°C° 0 mm 4 mps 753 mmHg 79%
    10:00 +30°C° 0.7 mm 5 mps 753 mmHg 78%
    11:00 +30°C° 0.7 mm 5 mps 753 mmHg 76%
    12:00 +32°C° 0.7 mm 6 mps 752 mmHg 74%
    13:00 +30°C° 1.5 mm 5 mps 752 mmHg 78%
    14:00 +29°C° 1.5 mm 5 mps 751 mmHg 83%
    15:00 +29°C° 1.5 mm 5 mps 751 mmHg 87%
    16:00 +28°C° 1.2 mm 5 mps 751 mmHg 89%
    17:00 +27°C° 1.2 mm 4 mps 751 mmHg 91%
    18:00 +27°C° 1.2 mm 3 mps 751 mmHg 93%
    19:00 +27°C° 0.6 mm 3 mps 752 mmHg 93%
    20:00 +26°C° 0.6 mm 3 mps 752 mmHg 93%
    21:00 +26°C° 0.6 mm 3 mps 753 mmHg 94%
    22:00 +26°C° 0.5 mm 3 mps 753 mmHg 94%
    23:00 +26°C° 0.5 mm 3 mps 753 mmHg 94%

    26 July, Thursday

    Time Temperature Precipitation Wind Pressure Humidity
    00:00 +26°C° 0.5 mm 3 mps 752 mmHg 94%
    01:00 +26°C° 0.4 mm 3 mps 752 mmHg 94%
    02:00 +26°C° 0.4 mm 3 mps 752 mmHg 94%
    03:00 +26°C° 0.4 mm 4 mps 751 mmHg 94%
    04:00 +26°C° 0.3 mm 4 mps 751 mmHg 94%
    05:00 +25°C° 0.3 mm 4 mps 752 mmHg 94%
    06:00 +25°C° 0.3 mm 4 mps 752 mmHg 94%
    07:00 +26°C° 0.3 mm 4 mps 752 mmHg 92%
    08:00 +27°C° 0.3 mm 4 mps 753 mmHg 90%
    09:00 +28°C° 0.3 mm 5 mps 753 mmHg 87%
    10:00 +28°C° 1.5 mm 5 mps 753 mmHg 88%
    11:00 +28°C° 1.5 mm 5 mps 752 mmHg 88%
    12:00 +28°C° 1.5 mm 5 mps 752 mmHg 88%
    13:00 +28°C° 1.9 mm 5 mps 752 mmHg 89%
    14:00 +27°C° 1.9 mm 5 mps 751 mmHg 90%
    15:00 +27°C° 1.9 mm 5 mps 750 mmHg 92%
    16:00 +27°C° 1.7 mm 5 mps 751 mmHg 92%
    17:00 +26°C° 1.7 mm 5 mps 751 mmHg 93%
    18:00 +26°C° 1.7 mm 5 mps 751 mmHg 93%
    19:00 +26°C° 0.5 mm 5 mps 752 mmHg 94%
    20:00 +26°C° 0.5 mm 4 mps 752 mmHg 94%
    21:00 +26°C° 0.5 mm 4 mps 753 mmHg 94%
    22:00 +26°C° 0.3 mm 4 mps 753 mmHg 94%
    23:00 +25°C° 0.3 mm 3 mps 752 mmHg 94%

    27 July, Friday

    Time Temperature Precipitation Wind Pressure Humidity
    00:00 +25°C° 0.3 mm 3 mps 752 mmHg 94%
    01:00 +25°C° 0.2 mm 3 mps 752 mmHg 94%
    02:00 +25°C° 0.2 mm 3 mps 751 mmHg 95%
    03:00 +25°C° 0.2 mm 3 mps 751 mmHg 95%
    04:00 +25°C° 0.2 mm 3 mps 751 mmHg 95%
    05:00 +25°C° 0.2 mm 3 mps 752 mmHg 94%
    06:00 +25°C° 0.2 mm 3 mps 752 mmHg 94%
    07:00 +26°C° 0.3 mm 4 mps 752 mmHg 91%
    08:00 +27°C° 0.3 mm 5 mps 753 mmHg 88%
    09:00 +28°C° 0.3 mm 5 mps 753 mmHg 85%
    10:00 +29°C° 0.4 mm 6 mps 753 mmHg 82%
    11:00 +30°C° 0.4 mm 6 mps 752 mmHg 80%
    12:00 +30°C° 0.4 mm 6 mps 752 mmHg 77%
    13:00 +29°C° 1.1 mm 5 mps 752 mmHg 81%
    14:00 +28°C° 1.1 mm 5 mps 751 mmHg 85%
    15:00 +27°C° 1.1 mm 4 mps 751 mmHg 89%
    16:00 +27°C° 0.9 mm 4 mps 751 mmHg 91%
    17:00 +27°C° 0.9 mm 3 mps 751 mmHg 92%
    18:00 +26°C° 0.9 mm 3 mps 752 mmHg 94%
    19:00 +26°C° 0.1 mm 2 mps 752 mmHg 94%
    20:00 +26°C° 0.1 mm 2 mps 753 mmHg 94%
    21:00 +26°C° 0.1 mm 2 mps 753 mmHg 94%
    22:00 +26°C° 0.1 mm 2 mps 753 mmHg 94%
    23:00 +26°C° 0.1 mm 2 mps 753 mmHg 94%

    28 July, Saturday

    Time Temperature Precipitation Wind Pressure Humidity
    00:00 +25°C° 0.1 mm 2 mps 752 mmHg 94%
    01:00 +25°C° 0 mm 2 mps 752 mmHg 94%
    02:00 +25°C° 0 mm 2 mps 752 mmHg 95%
    03:00 +25°C° 0 mm 2 mps 752 mmHg 95%
    04:00 +25°C° 0.1 mm 2 mps 752 mmHg 95%
    05:00 +25°C° 0.1 mm 3 mps 752 mmHg 94%
    06:00 +25°C° 0.1 mm 3 mps 752 mmHg 94%
    07:00 +26°C° 0 mm 4 mps 752 mmHg 89%
    08:00 +28°C° 0 mm 4 mps 753 mmHg 85%
    09:00 +29°C° 0 mm 5 mps 753 mmHg 80%
    10:00 +30°C° 0.6 mm 5 mps 752 mmHg 79%
    11:00 +30°C° 0.6 mm 5 mps 752 mmHg 78%
    12:00 +32°C° 0.6 mm 5 mps 752 mmHg 77%
    13:00 +30°C° 1.5 mm 5 mps 751 mmHg 81%
    14:00 +29°C° 1.5 mm 5 mps 751 mmHg 84%
    15:00 +28°C° 1.5 mm 5 mps 750 mmHg 88%
    16:00 +28°C° 0.8 mm 4 mps 750 mmHg 89%
    17:00 +28°C° 0.8 mm 4 mps 751 mmHg 90%
    18:00 +27°C° 0.8 mm 4 mps 751 mmHg 91%
    19:00 +27°C° 1 mm 4 mps 752 mmHg 92%
    20:00 +26°C° 1 mm 4 mps 752 mmHg 92%
    21:00 +26°C° 1 mm 4 mps 753 mmHg 93%
    22:00 +26°C° 1.1 mm 3 mps 753 mmHg 93%
    23:00 +26°C° 1.1 mm 3 mps 752 mmHg 94%
    Show more